This is the latest recevied weather packets stored in our database for station/object KQ4JKJ. If no packets are shown the sender has not sent any weather packets the latest 10 day(s).
| Time | Temp. | Humidity | Pressure | Rain* | Wind** | Luminosity | Snow |
|---|---|---|---|---|---|---|---|
| 1777995415 | 28.33° C | 59% | 1011.2 hPa | 0 mm | - | 710 W/m² | - |
| 1777995112 | 28.33° C | 58% | 1011.3 hPa | 0 mm | - | 706 W/m² | - |
| 1777994809 | 27.78° C | 55% | 1011.1 hPa | 0 mm | - | 685 W/m² | - |
| 1777994505 | 27.78° C | 59% | 1011.1 hPa | 0 mm | - | 677 W/m² | - |
| 1777994200 | 27.78° C | 58% | 1011.3 hPa | 0 mm | - | 678 W/m² | - |
| 1777993898 | 27.78° C | 60% | 1011.1 hPa | 0 mm | - | 679 W/m² | - |
| 1777993594 | 27.22° C | 62% | 1010.8 hPa | 0 mm | - | 654 W/m² | - |
| 1777993291 | 27.22° C | 62% | 1010.9 hPa | 0 mm | - | 642 W/m² | - |
| 1777992986 | 27.22° C | 60% | 1010.9 hPa | 0 mm | - | 637 W/m² | - |
| 1777992685 | 27.22° C | 62% | 1010.8 hPa | 0 mm | - | 638 W/m² | - |
| 1777992383 | 27.78° C | 60% | 1010.9 hPa | 0 mm | - | 572 W/m² | - |
| 1777992080 | 27.22° C | 60% | 1010.8 hPa | 0 mm | - | 591 W/m² | - |
| 1777991778 | 27.22° C | 63% | 1010.9 hPa | 0 mm | - | 586 W/m² | - |
| 1777991475 | 27.22° C | 63% | 1010.8 hPa | 0 mm | - | 570 W/m² | - |
| 1777991172 | 27.22° C | 63% | 1010.6 hPa | 0 mm | - | 556 W/m² | - |
| 1777990869 | 26.67° C | 65% | 1010.6 hPa | 0 mm | - | 560 W/m² | - |
| 1777990567 | 27.22° C | 62% | 1010.7 hPa | 0 mm | - | 158 W/m² | - |
| 1777989960 | 26.67° C | 66% | 1010.9 hPa | 0 mm | - | 535 W/m² | - |
| 1777989656 | 27.22° C | 61% | 1010.8 hPa | 0 mm | - | 110 W/m² | - |
| 1777989353 | 26.67° C | 63% | 1010.9 hPa | 0 mm | - | 444 W/m² | - |
| 1777989049 | 26.67° C | 63% | 1011 hPa | 0 mm | - | 465 W/m² | - |
| 1777988745 | 26.67° C | 66% | 1010.9 hPa | 0 mm | - | 486 W/m² | - |
| 1777988443 | 26.67° C | 66% | 1010.7 hPa | 0 mm | - | 161 W/m² | - |
| 1777988139 | 26.67° C | 66% | 1010.8 hPa | 0 mm | - | 345 W/m² | - |
| 1777987835 | 26.67° C | 69% | 1010.7 hPa | 0 mm | - | 339 W/m² | - |
* Rain latest hour (hover to see other rain measurements)
** Current wind speed in m/s (hover to see current wind gust speed)